SCP
0 0 0 0 0 0 0 0 0 0 0 0 0 0 0 0 0 0 0 0 0 0 0 0 0 0 0 0 0 0 0 0 0 0 0 0 0 0 0 0 0 0 0
-0 0 0 0 0 0 0 0 0 0 0 0 0 0 0 0 0 0 0 0 0 0 0 0 0 0 0 0 0 0 0 0 0 0 0 0 0 0 0 0 0 0 0
-0 -0 -0 0 0 0 0 0 0 0 0 0 0 0 0 0 0 0 0 0 0 0 0 0 0 0 0 0 0 0 0 0 0 0 0 0 0 0 0 0 0 0 0
-0 -0 -0 -0 0 0 0 0 0 0 0 0 0 0 0 0 0 0 0 0 0 0 0 0 0 0 0 0 0 0 0 0 0 0 0 0 0 0 0 0 0 0 0
-0 -0 -0 -0 -0 0 0 0 0 0 0 0 0 0 0 0 0 0 0 0 0 0 0 0 0 0 0 0 0 0 0 0 0 0 0 0 0 0 0 0 0 0 0
-0 -0 -0 -0 -0 -0 0 0 0 -0 0 0 0 0 0 0 0 0 0 0 0 0 0 0 0 0 0 0 0 0 0 0 0 0 0 0 0 0 0 0 0 0 0
-0 -0 -0 -0 -0 -0 -0 -0 0 0 -0 0 0 0 0 0 0 0 0 0 0 0 0 0 0 0 0 0 0 0 0 0 0 0 0 0 0 0 0 0 0 0 0
-0 -0 -0 -0 -0 -0 -0 -0 0 0 -0 -0 0 0 0 0 0 0 0 0 0 0 0 0 0 0 0 0 0 0 0 0 0 0 0 0 0 0 0 0 0 0 0
-0 -0 -0 -0 -0 -0 0 -0 -0 0 0 -0 0 0 0 0 0 0 0 0 0 0 0 0 0 0 0 0 0 0 0 0 0 0 0 0 0 0 0 0 0 0 0
0 -0 -0 -0 -0 -0 0 0 -0 0 0 0 0 0 0 0 0 0 0 0 0 0 0 0 0 0 0 0 0 0 0 0 0 0 0 0 0 0 0 0 0 0 0
0 0 -0 -0 -0 -0 -0 0 0 0 0 0 0 0 0 0 0 0 0 0 0 0 0 0 0 0 0 0 0 0 0 0 0 0 0 0 0 0 0 0 0 0 0
0 0 0 -0 -0 -0 -0 0 0 -0 0 -0 0 0 0 0 0 0 0 0 0 0 0 0 0 0 0 0 0 0 0 0 0 0 0 0 0 0 0 0 0 0 0
0 0 0 0 -0 -0 -0 -0 0 -0 -0 0 0 0 0 0 0 0 0 0 0 0 0 0 0 0 0 0 0 0 0 0 0 0 0 0 0 0 0 0 0 0 0
0 0 0 0 0 -0 -0 -0 -0 0 0 -0 0 0 0 0 0 0 0 0 0 0 0 0 0 0 0 0 0 0 0 0 0 0 0 0 0 0 0 0 0 0 0
0 0 0 0 0 -0 -0 -0 -0 -0 0 0 0 0 0 0 0 0 0 0 0 0 0 0 0 0 0 0 0 0 0 0 0 0 0 0 0 0 0 0 0 0 0
0 0 0 0 0 -0 -0 -0 0 0 0 0 0 0 0 0 0 0 0 0 0 0 0 0 0 0 0 0 0 0 0 0 0 0 0 0 0 0 0 0 0 0 0
0 0 0 0 0 0 0 -0 -0 0 0 0 0 0 0 0 0 0 0 0 0 0 0 0 0 0 0 0 0 0 0 0 0 0 0 0 0 0 0 0 0 0 0
0 0 0 0 0 0 0 0 -0 -0 0 0 0 0 -0 0 0 0 0 0 0 0 0 0 0 0 0 0 0 0 0 0 0 0 0 0 0 0 0 0 0 0 0
0 0 0 0 0 0 0 0 -0 -0 0 0 0 0 0 0 0 0 0 0 0 0 0 0 0 0 0 0 0 0 0 0 0 0 0 0 0 0 0 0 0 0 0
0 0 0 0 0 0 0 0 -0 -0 -0 0 0 0 0 0 0 0 0 0 0 0 0 0 0 0 0 0 0 0 0 0 0 0 0 0 0 0 0 0 0 0 0
0 0 0 0 0 0 0 0 0 -0 -0 0 0 0 0 0 0 0 0 0 0 0 0 0 0 0 0 0 0 0 0 0 0 0 0 0 0 0 0 0 0 0 0
0 0 0 0 0 0 0 0 0 -0 -0 -0 0 0 0 0 0 0 0 0 0 0 0 0 0 0 0 0 0 0 0 0 0 0 0 0 0 0 0 0 0 0 0
0 0 0 0 0 0 0 0 0 -0 -0 -0 0 0 0 0 0 0 0 0 0 0 0 0 0 0 0 0 0 0 0 0 0 0 0 0 0 0 0 0 0 0 0
0 0 0 0 0 0 0 0 0 0 -0 -0 -0 0 0 0 0 0 0 0 0 0 0 0 0 0 0 0 0 0 0 0 0 0 0 0 0 0 0 0 0 0 0
0 0 0 0 0 0 0 0 0 0 0 0 0 0 0 0 0 0 0 0 0 0 0 0 0 0 0 0 0 0 0 0 0 0 0 0 0 0 0 0 0 0 0
0 0 0 0 0 0 0 0 0 0 0 0 0 0 0 0 0 0 0 0 0 0 0 0 0 0 0 0 0 0 0 0 0 0 0 0 0 0 0 0 0 0 0
Wind_Speed_500mb
88 86 84 87 77 57 57 57 50 50 42 62 66 70 70 76 79 94 87 72 74 75 66 63 61 56 52 49 48 47 48 45 40 35 36 31 24 20 16 16 17 16 16
84 84 86 84 85 74 59 56 54 49 49 47 62 71 74 78 78 95 95 83 88 78 62 56 55 56 47 46 45 44 43 40 38 34 32 25 17 13 11 14 13 13 19
81 80 81 85 85 85 73 59 55 51 47 49 52 63 68 75 76 80 87 83 82 83 75 61 63 55 52 49 46 44 41 37 35 30 28 20 14 10 9 12 12 16 24
82 80 79 80 82 83 83 67 58 53 46 45 49 54 61 71 72 78 83 81 82 74 67 60 57 51 50 47 45 41 41 37 32 26 22 16 10 6 7 9 10 17 23
80 78 77 76 77 78 79 77 63 56 49 43 44 49 55 63 69 79 75 79 77 73 71 64 52 54 49 45 43 44 41 37 32 28 23 14 8 4 5 11 20 24 15
73 76 76 77 77 76 77 80 68 61 54 49 44 45 50 63 67 72 73 76 76 69 63 58 54 54 54 49 45 42 38 35 32 29 21 14 9 3 4 10 17 14 16
69 72 77 77 78 77 73 74 76 62 53 51 48 46 50 58 66 69 73 74 72 68 62 60 60 61 53 44 42 42 41 36 32 26 19 12 7 2 5 13 17 11 10
76 77 76 77 77 76 71 69 68 68 54 47 46 43 51 51 53 59 64 65 64 59 54 58 58 55 52 48 44 38 37 35 31 25 21 14 7 3 5 13 10 10 5
81 80 78 78 77 72 69 66 64 66 59 44 39 38 39 41 45 48 53 52 50 52 51 49 50 50 48 44 40 39 36 34 31 28 22 16 9 8 4 8 5 7 8
79 80 75 70 70 66 63 60 60 55 63 47 37 38 34 35 37 43 48 49 47 48 47 47 47 47 42 38 38 36 36 33 30 28 25 20 15 12 1 3 2 4 9
77 77 71 66 66 60 58 54 55 53 53 57 38 34 35 34 34 35 40 44 46 45 46 46 46 43 40 37 34 33 31 29 30 29 27 21 18 11 2 7 6 3 10
76 73 70 67 63 58 56 52 51 48 46 54 44 36 34 35 35 36 37 39 43 44 47 48 43 39 37 36 35 33 29 29 28 28 28 25 19 15 7 10 9 5 5
72 72 67 64 61 54 54 55 51 48 45 41 55 41 35 35 37 39 41 42 39 41 42 39 38 38 36 36 33 33 30 29 30 29 29 26 23 16 10 12 11 8 3
69 67 63 60 61 63 55 50 48 46 45 42 44 49 41 37 41 41 40 42 44 42 38 36 38 39 39 37 35 32 29 29 26 26 28 27 26 19 14 14 13 14 6
63 63 61 60 59 63 59 50 47 40 39 44 38 45 44 44 44 44 44 50 47 45 43 41 44 45 46 41 37 34 32 31 27 29 27 28 28 22 19 17 21 17 9
59 59 59 60 58 58 61 62 47 41 36 35 38 33 45 39 39 47 45 45 49 49 47 49 48 45 44 41 39 39 37 31 29 30 30 31 28 24 22 24 24 21 11
58 58 61 58 58 58 59 58 64 55 39 36 31 30 35 38 40 43 47 45 45 49 52 52 52 53 46 44 44 42 39 33 29 28 29 29 29 24 26 25 24 21 13
57 57 59 57 55 56 55 54 52 56 59 52 33 28 26 34 42 40 52 50 55 58 60 60 58 53 49 46 45 43 40 34 31 30 30 32 28 28 28 28 26 19 11
57 57 56 55 51 51 51 51 50 51 51 53 45 35 27 31 36 43 56 70 75 74 70 66 57 54 50 47 44 45 38 33 30 32 34 32 30 30 31 30 25 17 13
54 52 51 50 49 48 47 47 49 48 51 49 44 38 36 34 30 48 60 69 78 82 75 61 62 59 53 49 45 46 42 37 34 34 33 33 31 34 33 30 24 15 12
53 50 47 44 42 42 43 45 44 46 49 50 49 35 36 38 39 41 63 64 71 85 73 67 72 61 55 50 47 50 46 39 35 32 33 34 36 38 37 34 27 19 16
46 44 42 41 40 39 41 41 41 43 46 50 47 35 32 36 40 40 44 54 70 81 72 69 65 56 53 52 50 51 47 41 36 34 33 35 38 39 38 34 27 22 17
38 37 35 34 35 34 35 36 38 40 41 42 40 33 30 32 37 40 39 43 58 68 73 71 57 55 55 52 49 46 43 42 37 33 33 35 38 38 37 33 28 22 19
33 33 32 31 30 30 31 32 34 36 39 37 35 30 28 29 33 30 33 38 50 63 71 74 64 56 56 53 51 48 46 45 40 36 33 33 36 37 36 33 27 23 20
32 32 30 29 27 27 26 26 28 31 35 34 29 23 17 17 25 28 32 36 54 62 72 72 68 59 54 52 49 49 47 44 41 38 37 37 35 34 35 33 29 24 20
27 30 29 27 25 25 25 25 25 26 30 33 30 22 14 4 9 24 35 48 58 66 66 65 60 55 56 55 51 49 46 44 42 40 38 38 38 38 35 33 32 27 22
Wind_Direction_500mb
352 352 352 353 347 341 334 328 299 275 273 283 285 277 273 263 254 237 233 235 234 223 222 227 231 229 228 229 230 226 225 223 224 218 224 234 247 257 273 290 310 314 308
348 349 349 349 349 342 338 329 324 295 273 273 277 275 270 261 259 239 232 226 234 218 211 217 230 230 229 228 225 223 221 220 222 221 222 230 238 256 283 309 328 327 311
342 344 346 347 348 347 337 334 323 317 292 277 275 271 268 264 258 248 236 228 219 217 212 213 227 225 227 224 220 218 220 217 217 218 220 221 233 253 284 321 333 325 316
336 339 341 344 345 343 342 333 328 317 311 290 280 275 269 265 261 253 235 225 216 213 204 202 216 229 230 222 216 216 216 215 211 209 217 218 215 251 291 320 325 332 332
330 333 336 337 341 342 340 339 329 322 315 303 288 279 270 260 254 247 236 219 214 209 206 205 211 225 221 216 214 214 214 211 204 208 213 206 210 210 306 344 348 351 3
328 329 331 333 335 339 340 340 336 324 322 315 295 280 273 261 254 242 223 216 211 207 201 196 201 218 215 211 208 208 211 213 211 210 211 205 207 208 354 351 350 3 17
327 327 328 331 331 334 338 336 342 330 322 321 307 285 267 253 242 227 217 209 204 199 203 203 204 214 211 207 204 206 209 209 211 209 215 206 198 214 344 354 355 5 18
323 323 324 325 327 329 332 335 334 340 323 322 308 287 264 247 229 215 210 207 205 203 203 208 207 207 203 200 205 205 208 209 209 205 211 200 191 227 321 358 355 354 23
320 322 323 322 322 324 326 331 332 336 332 316 310 283 260 241 222 210 204 201 201 201 203 208 207 206 201 198 200 202 202 205 202 201 203 194 188 227 310 358 12 20 5
319 321 325 324 321 320 322 325 329 326 340 314 304 291 271 247 226 210 208 206 199 199 203 206 207 203 196 195 197 199 200 200 199 201 199 190 199 221 270 74 75 78 29
318 321 325 326 325 322 319 322 326 324 331 333 303 292 267 249 231 212 207 201 197 199 206 203 203 198 192 194 197 200 201 200 200 201 199 194 202 215 184 133 140 129 87
317 322 324 324 326 325 321 322 322 324 319 333 319 292 275 254 232 212 207 202 200 205 205 207 204 199 194 194 198 200 204 204 202 204 203 199 198 210 153 154 160 173 99
317 320 325 325 324 326 323 321 320 322 319 324 331 308 286 257 231 218 211 210 213 218 218 211 207 202 199 200 201 206 208 205 205 203 205 204 201 195 170 169 176 189 170
316 321 326 326 326 326 322 319 317 318 320 315 321 320 295 264 235 213 202 210 211 215 218 212 210 210 206 203 205 210 209 211 208 203 207 203 205 194 185 178 197 201 195
316 324 327 327 328 326 326 322 316 312 313 310 300 311 293 276 243 223 217 211 211 212 211 211 210 209 209 207 212 215 211 213 206 205 202 200 204 200 194 188 203 212 198
317 324 329 331 331 329 328 322 319 313 307 294 284 287 294 276 262 227 222 221 219 212 208 209 210 215 217 216 218 217 213 214 212 203 200 199 201 203 200 193 201 208 188
315 319 321 324 329 331 329 328 322 316 313 304 290 273 290 270 259 240 225 220 222 214 207 205 216 222 220 221 221 221 216 211 211 206 204 194 197 207 198 191 198 206 184
311 314 316 319 321 325 328 325 322 320 320 313 307 284 281 278 247 243 212 206 214 216 215 220 221 221 222 222 222 221 215 210 206 206 198 193 194 198 195 189 194 193 189
310 312 314 315 318 319 324 324 322 320 315 312 308 301 281 282 251 233 222 210 209 214 217 220 219 224 223 221 220 217 210 209 207 206 194 189 193 193 186 186 189 186 189
311 312 312 312 316 317 321 323 321 319 316 313 305 296 295 283 266 231 228 226 218 217 219 221 221 224 220 216 215 211 205 202 204 204 194 189 190 187 180 182 182 174 176
314 315 313 314 316 317 320 323 321 317 316 313 307 292 284 279 276 252 235 233 227 218 215 217 227 222 215 210 209 211 202 196 199 198 192 190 185 179 178 181 179 174 173
318 319 318 319 319 319 322 323 324 320 316 312 312 291 282 266 265 261 249 237 227 218 210 214 229 221 214 209 206 207 197 190 194 194 189 187 182 179 182 180 178 167 166
327 324 323 324 321 322 323 325 328 325 320 316 313 294 281 274 264 260 252 242 232 230 218 209 222 218 210 206 205 207 197 192 189 191 188 181 179 180 181 176 174 168 159
338 336 334 331 329 328 330 332 336 334 330 324 317 301 282 270 259 267 255 244 236 231 224 206 212 213 207 201 200 199 196 193 190 185 181 178 175 175 174 171 172 170 160
350 349 345 340 339 338 339 341 344 347 347 343 331 321 299 266 252 249 253 246 233 230 220 206 206 204 198 196 195 195 193 191 189 188 180 174 173 172 169 168 168 170 159
349 356 356 351 347 345 345 348 352 355 357 3 3 352 336 334 196 201 208 210 217 219 211 200 198 193 190 188 189 193 191 190 189 187 184 178 175 173 169 167 165 169 167
Wind_Speed_850mb
88 86 84 87 77 57 57 57 50 50 42 62 66 70 70 76 79 94 87 72 74 75 66 63 61 56 52 49 48 47 48 45 40 35 36 31 24 20 16 16 17 16 16
84 84 86 84 85 74 59 56 54 49 49 47 62 71 74 78 78 95 95 83 88 78 62 56 55 56 47 46 45 44 43 40 38 34 32 25 17 13 11 14 13 13 19
81 80 81 85 85 85 73 59 55 51 47 49 52 63 68 75 76 80 87 83 82 83 75 61 63 55 52 49 46 44 41 37 35 30 28 20 14 10 9 12 12 16 24
82 80 79 80 82 83 83 67 58 53 46 45 49 54 61 71 72 78 83 81 82 74 67 60 57 51 50 47 45 41 41 37 32 26 22 16 10 6 7 9 10 17 23
80 78 77 76 77 78 79 77 63 56 49 43 44 49 55 63 69 79 75 79 77 73 71 64 52 54 49 45 43 44 41 37 32 28 23 14 8 4 5 11 20 24 15
73 76 76 77 77 76 77 80 68 61 54 49 44 45 50 63 67 72 73 76 76 69 63 58 54 54 54 49 45 42 38 35 32 29 21 14 9 3 4 10 17 14 16
69 72 77 77 78 77 73 74 76 62 53 51 48 46 50 58 66 69 73 74 72 68 62 60 60 61 53 44 42 42 41 36 32 26 19 12 7 2 5 13 17 11 10
76 77 76 77 77 76 71 69 68 68 54 47 46 43 51 51 53 59 64 65 64 59 54 58 58 55 52 48 44 38 37 35 31 25 21 14 7 3 5 13 10 10 5
81 80 78 78 77 72 69 66 64 66 59 44 39 38 39 41 45 48 53 52 50 52 51 49 50 50 48 44 40 39 36 34 31 28 22 16 9 8 4 8 5 7 8
79 80 75 70 70 66 63 60 60 55 63 47 37 38 34 35 37 43 48 49 47 48 47 47 47 47 42 38 38 36 36 33 30 28 25 20 15 12 1 3 2 4 9
77 77 71 66 66 60 58 54 55 53 53 57 38 34 35 34 34 35 40 44 46 45 46 46 46 43 40 37 34 33 31 29 30 29 27 21 18 11 2 7 6 3 10
76 73 70 67 63 58 56 52 51 48 46 54 44 36 34 35 35 36 37 39 43 44 47 48 43 39 37 36 35 33 29 29 28 28 28 25 19 15 7 10 9 5 5
72 72 67 64 61 54 54 55 51 48 45 41 55 41 35 35 37 39 41 42 39 41 42 39 38 38 36 36 33 33 30 29 30 29 29 26 23 16 10 12 11 8 3
69 67 63 60 61 63 55 50 48 46 45 42 44 49 41 37 41 41 40 42 44 42 38 36 38 39 39 37 35 32 29 29 26 26 28 27 26 19 14 14 13 14 6
63 63 61 60 59 63 59 50 47 40 39 44 38 45 44 44 44 44 44 50 47 45 43 41 44 45 46 41 37 34 32 31 27 29 27 28 28 22 19 17 21 17 9
59 59 59 60 58 58 61 62 47 41 36 35 38 33 45 39 39 47 45 45 49 49 47 49 48 45 44 41 39 39 37 31 29 30 30 31 28 24 22 24 24 21 11
58 58 61 58 58 58 59 58 64 55 39 36 31 30 35 38 40 43 47 45 45 49 52 52 52 53 46 44 44 42 39 33 29 28 29 29 29 24 26 25 24 21 13
57 57 59 57 55 56 55 54 52 56 59 52 33 28 26 34 42 40 52 50 55 58 60 60 58 53 49 46 45 43 40 34 31 30 30 32 28 28 28 28 26 19 11
57 57 56 55 51 51 51 51 50 51 51 53 45 35 27 31 36 43 56 70 75 74 70 66 57 54 50 47 44 45 38 33 30 32 34 32 30 30 31 30 25 17 13
54 52 51 50 49 48 47 47 49 48 51 49 44 38 36 34 30 48 60 69 78 82 75 61 62 59 53 49 45 46 42 37 34 34 33 33 31 34 33 30 24 15 12
53 50 47 44 42 42 43 45 44 46 49 50 49 35 36 38 39 41 63 64 71 85 73 67 72 61 55 50 47 50 46 39 35 32 33 34 36 38 37 34 27 19 16
46 44 42 41 40 39 41 41 41 43 46 50 47 35 32 36 40 40 44 54 70 81 72 69 65 56 53 52 50 51 47 41 36 34 33 35 38 39 38 34 27 22 17
38 37 35 34 35 34 35 36 38 40 41 42 40 33 30 32 37 40 39 43 58 68 73 71 57 55 55 52 49 46 43 42 37 33 33 35 38 38 37 33 28 22 19
33 33 32 31 30 30 31 32 34 36 39 37 35 30 28 29 33 30 33 38 50 63 71 74 64 56 56 53 51 48 46 45 40 36 33 33 36 37 36 33 27 23 20
32 32 30 29 27 27 26 26 28 31 35 34 29 23 17 17 25 28 32 36 54 62 72 72 68 59 54 52 49 49 47 44 41 38 37 37 35 34 35 33 29 24 20
27 30 29 27 25 25 25 25 25 26 30 33 30 22 14 4 9 24 35 48 58 66 66 65 60 55 56 55 51 49 46 44 42 40 38 38 38 38 35 33 32 27 22
Wind_Direction_850mb
352 352 352 353 347 341 334 328 299 275 273 283 285 277 273 263 254 237 233 235 234 223 222 227 231 229 228 229 230 226 225 223 224 218 224 234 247 257 273 290 310 314 308
348 349 349 349 349 342 338 329 324 295 273 273 277 275 270 261 259 239 232 226 234 218 211 217 230 230 229 228 225 223 221 220 222 221 222 230 238 256 283 309 328 327 311
342 344 346 347 348 347 337 334 323 317 292 277 275 271 268 264 258 248 236 228 219 217 212 213 227 225 227 224 220 218 220 217 217 218 220 221 233 253 284 321 333 325 316
336 339 341 344 345 343 342 333 328 317 311 290 280 275 269 265 261 253 235 225 216 213 204 202 216 229 230 222 216 216 216 215 211 209 217 218 215 251 291 320 325 332 332
330 333 336 337 341 342 340 339 329 322 315 303 288 279 270 260 254 247 236 219 214 209 206 205 211 225 221 216 214 214 214 211 204 208 213 206 210 210 306 344 348 351 3
328 329 331 333 335 339 340 340 336 324 322 315 295 280 273 261 254 242 223 216 211 207 201 196 201 218 215 211 208 208 211 213 211 210 211 205 207 208 354 351 350 3 17
327 327 328 331 331 334 338 336 342 330 322 321 307 285 267 253 242 227 217 209 204 199 203 203 204 214 211 207 204 206 209 209 211 209 215 206 198 214 344 354 355 5 18
323 323 324 325 327 329 332 335 334 340 323 322 308 287 264 247 229 215 210 207 205 203 203 208 207 207 203 200 205 205 208 209 209 205 211 200 191 227 321 358 355 354 23
320 322 323 322 322 324 326 331 332 336 332 316 310 283 260 241 222 210 204 201 201 201 203 208 207 206 201 198 200 202 202 205 202 201 203 194 188 227 310 358 12 20 5
319 321 325 324 321 320 322 325 329 326 340 314 304 291 271 247 226 210 208 206 199 199 203 206 207 203 196 195 197 199 200 200 199 201 199 190 199 221 270 74 75 78 29
318 321 325 326 325 322 319 322 326 324 331 333 303 292 267 249 231 212 207 201 197 199 206 203 203 198 192 194 197 200 201 200 200 201 199 194 202 215 184 133 140 129 87
317 322 324 324 326 325 321 322 322 324 319 333 319 292 275 254 232 212 207 202 200 205 205 207 204 199 194 194 198 200 204 204 202 204 203 199 198 210 153 154 160 173 99
317 320 325 325 324 326 323 321 320 322 319 324 331 308 286 257 231 218 211 210 213 218 218 211 207 202 199 200 201 206 208 205 205 203 205 204 201 195 170 169 176 189 170
316 321 326 326 326 326 322 319 317 318 320 315 321 320 295 264 235 213 202 210 211 215 218 212 210 210 206 203 205 210 209 211 208 203 207 203 205 194 185 178 197 201 195
316 324 327 327 328 326 326 322 316 312 313 310 300 311 293 276 243 223 217 211 211 212 211 211 210 209 209 207 212 215 211 213 206 205 202 200 204 200 194 188 203 212 198
317 324 329 331 331 329 328 322 319 313 307 294 284 287 294 276 262 227 222 221 219 212 208 209 210 215 217 216 218 217 213 214 212 203 200 199 201 203 200 193 201 208 188
315 319 321 324 329 331 329 328 322 316 313 304 290 273 290 270 259 240 225 220 222 214 207 205 216 222 220 221 221 221 216 211 211 206 204 194 197 207 198 191 198 206 184
311 314 316 319 321 325 328 325 322 320 320 313 307 284 281 278 247 243 212 206 214 216 215 220 221 221 222 222 222 221 215 210 206 206 198 193 194 198 195 189 194 193 189
310 312 314 315 318 319 324 324 322 320 315 312 308 301 281 282 251 233 222 210 209 214 217 220 219 224 223 221 220 217 210 209 207 206 194 189 193 193 186 186 189 186 189
311 312 312 312 316 317 321 323 321 319 316 313 305 296 295 283 266 231 228 226 218 217 219 221 221 224 220 216 215 211 205 202 204 204 194 189 190 187 180 182 182 174 176
314 315 313 314 316 317 320 323 321 317 316 313 307 292 284 279 276 252 235 233 227 218 215 217 227 222 215 210 209 211 202 196 199 198 192 190 185 179 178 181 179 174 173
318 319 318 319 319 319 322 323 324 320 316 312 312 291 282 266 265 261 249 237 227 218 210 214 229 221 214 209 206 207 197 190 194 194 189 187 182 179 182 180 178 167 166
327 324 323 324 321 322 323 325 328 325 320 316 313 294 281 274 264 260 252 242 232 230 218 209 222 218 210 206 205 207 197 192 189 191 188 181 179 180 181 176 174 168 159
338 336 334 331 329 328 330 332 336 334 330 324 317 301 282 270 259 267 255 244 236 231 224 206 212 213 207 201 200 199 196 193 190 185 181 178 175 175 174 171 172 170 160
350 349 345 340 339 338 339 341 344 347 347 343 331 321 299 266 252 249 253 246 233 230 220 206 206 204 198 196 195 195 193 191 189 188 180 174 173 172 169 168 168 170 159
349 356 356 351 347 345 345 348 352 355 357 3 3 352 336 334 196 201 208 210 217 219 211 200 198 193 190 188 189 193 191 190 189 187 184 178 175 173 169 167 165 169 167